Starlink 34897

operational
NORAD ID: 65212 Int'l Des: 2025-176 Owner: SPXS Country: US Constellation: starlink
LEOCIRCULAR

Über Starlink 34897

Beschreibung wird geladen...

Live-Position

3D-Globus wird geladen...

Nächste Überflüge

Höhenverlauf

Altitude vs Time

uPlot chart will show altitude changes over time

Zweizeiliger Elementsatz

1 65212U 25176Q 25341.04827698 -.00027211 00000-0 -90989-3 0 9999
2 65212 53.1569 223.2548 0001715 78.4072 281.7122 15.30200996 18934
Epoch: 7. Dez. 2025 • Age: 21 hours

Aktueller Status

Höhe 476.6 km
Geschwindigkeit 7.63 km/s
Subsatellitenpunkt 30.93°N, 36.46°W
Startdatum 14. Aug. 2025
Alter 0.3 years
Typ internet

Technische Details

Klassifizierung Payload
Masse 575.00 kg
Trockenmasse 530.00 kg
Gesamtmasse 575.00 kg
Länge 0.30 m
Durchmesser 4.10 m
Spannweite 29.00 m
Form Box + pan
Hersteller SPXS
Bus-Typ Starlink V2MO
Phasenstatus In Orbit
Besitzer/Staat SPXS/US

Große Konstellationen

Loading constellations...